Flag for USA Past Weather in Kykotsmovi Village, Hopi, Arizona, USA — Yesterday and Last 2 Weeks

Now
46 °F

Sunny.


Feels Like: 43 °F
Forecast: 19 / 43 °F
Wind: 6 mph from Northwest

Location: Winslow Municipal Airport

Current Time: Dec 7, 2016 at 5:26:34 pm

Latest Report: Dec 7, 2016 at 4:56 pm


Visibility: 10 mi

Pressure: 30.08 "Hg (24.38 "Hg at 1727m altitude)

Humidity: 40%

Dew Point: 23 °F

Location of Kykotsmovi Village, HopiLocation

Past Weather in Kykotsmovi Village, Hopi — Graph

°F

Kykotsmovi Village, Hopi Temperature Yesterday

Maximum temperature yesterday: 58 °F (at 12:56 pm)
Minimum temperature yesterday: 37 °F (at 10:56 pm)
Average temperature yesterday: 47 °F

High & Low Weather Summary for the Past Weeks

 TemperatureHumidityPressure
High63 °F (Dec 5, 1:56 pm)100% (Nov 23, 6:56 am)30.53 "Hg (Nov 23, 6:56 am)
Low14 °F (Dec 4, 6:56 am)14% (Dec 5, 1:56 pm)29.66 "Hg (Nov 28, 1:56 pm)
Average36 °F58%30.06 "Hg
* Reported Nov 22 3:56 pm — Dec 7 3:56 pm, Kykotsmovi Village, Hopi, Weather by CustomWeather, © 2016

Note: Actual official high and low records may vary slightly from our data, if they occured in-between our weather recording intervals... More about our weather records

Advertising

Kykotsmovi Village, Hopi Weather History for the Previous 24 Hours

Scroll right to see more
 ConditionsComfort  
Time TempWeatherWind HumidityBarometerVisibility
3:56 pm
Wed, Dec 7
49 °FSunny.9 mph38%30.04 "Hg10 mi
2:56 pm50 °FSunny.8 mph36%30.00 "Hg10 mi
1:56 pm51 °FSunny.7 mph36%29.99 "Hg10 mi
12:56 pm49 °FScattered clouds.7 mph41%30.02 "Hg10 mi
11:56 am47 °FSunny.7 mph48%30.03 "Hg10 mi
10:56 am46 °FSunny.8 mph50%30.06 "Hg10 mi
9:56 am43 °FSunny.7 mph60%30.06 "Hg10 mi
8:56 am39 °FSunny.No wind70%30.05 "Hg10 mi
7:56 am30 °FSunny.No wind85%30.05 "Hg10 mi
6:56 am29 °FClear.No wind89%30.01 "Hg10 mi
5:56 am33 °FClear.7 mph82%29.95 "Hg10 mi
4:56 am32 °FPassing clouds.7 mph85%29.94 "Hg10 mi
3:56 am34 °FClear.No wind82%29.90 "Hg10 mi
2:56 am39 °FClear.9 mph73%29.86 "Hg10 mi
1:56 am40 °FClear.7 mph68%29.84 "Hg10 mi
12:56 am36 °FClear.3 mph70%29.83 "Hg10 mi
11:56 pm
Tue, Dec 6
40 °FClear.8 mph60%29.82 "Hg10 mi
10:56 pm37 °FClear.6 mph67%29.84 "Hg10 mi
9:56 pm38 °FClear.7 mph63%29.84 "Hg10 mi
8:56 pm41 °FClear.9 mph58%29.83 "Hg10 mi
7:56 pm39 °FClear.6 mph57%29.83 "Hg10 mi
6:56 pm45 °FClear.14 mph45%29.80 "Hg10 mi
5:56 pm48 °FClear.20 mph39%29.79 "Hg10 mi
Weather by CustomWeather, © 2016

See weather overviewHow to use our weather pages